GW4851 Weather Reports


Display with metric or nautical units.
time (UTC)temp
F
wind
direction
speed
MPH
gust
MPH
rain 1hr
in
rain 24hr
in
rain mn
in
humidity
%
barometer
mb
20260503184350 58 308 2.0 6.0 0.00 0.00 0.00 32 1016.6
20260503183846 58 300 2.0 7.0 0.00 0.00 0.00 32 1016.9
20260503183343 58 295 3.0 11.0 0.00 0.00 0.00 31 1016.9
20260503182840 57 313 7.0 8.0 0.00 0.00 0.00 33 1016.8
20260503182340 58 346 6.0 13.0 0.00 0.00 0.00 32 1016.7
20260503181836 57 34 1.0 7.0 0.00 0.00 0.00 36 1016.8
20260503181333 57 338 4.0 9.0 0.00 0.00 0.00 31 1016.7
20260503180829 57 339 2.0 3.0 0.00 0.00 0.00 32 1016.8
20260503180328 56 321 4.0 15.0 0.00 0.00 0.00 33 1016.9
20260503175824 57 299 7.0 11.0 0.00 0.00 0.00 31 1016.9
20260503175322 56 3 3.0 15.0 0.00 0.00 0.00 33 1017.1
20260503174817 56 323 2.0 15.0 0.00 0.00 0.00 31 1017.0
20260503174316 56 291 8.0 10.0 0.00 0.00 0.00 33 1017.0
20260503173811 56 10 8.0 14.0 0.00 0.00 0.00 30 1017.3
20260503173307 55 32 9.0 10.0 0.00 0.00 0.00 33 1017.0
20260503172804 54 340 4.0 8.0 0.00 0.00 0.00 34 1017.1
20260503172301 54 19 7.0 13.0 0.00 0.00 0.00 34 1017.3
20260503171757 55 57 8.0 11.0 0.00 0.00 0.00 33 1017.5
20260503171254 54 284 10.0 14.0 0.00 0.00 0.00 36 1017.5
20260503170752 54 329 3.0 4.0 0.00 0.00 0.00 36 1017.5
20260503170248 54 23 9.0 17.0 0.00 0.00 0.00 37 1017.7
20260503160210 51 266 4.0 7.0 0.00 0.00 0.00 45 1018.4
20260503150641 49 314 4.0 11.0 0.00 0.00 0.00 45 1018.7
20260503150136 47 289 4.0 13.0 0.00 0.00 0.00 46 1018.8
20260503131030 45 331 4.0 13.0 0.00 0.00 0.00 54 1018.4
20260503130527 44 340 9.0 13.0 0.00 0.00 0.00 55 1018.6
20260503110418 39 303 0.0 1.0 0.00 0.00 0.00 71 1017.7
20260503090309 39 350 1.0 1.0 0.00 0.00 0.00 71 1016.8
20260503081242 40 306 1.0 1.0 0.00 0.00 0.00 70 1016.7
20260503080737 40 291 1.0 1.0 0.00 0.00 0.00 70 1016.6
20260503080235 40 44 2.0 3.0 0.00 0.00 0.00 70 1016.6
20260503072712 40 350 0.0 2.0 0.00 0.00 0.00 71 1016.3
20260503072208 40 329 0.0 0.0 0.00 0.00 0.00 72 1016.4
20260503071705 40 326 1.0 3.0 0.00 0.00 0.00 69 1016.1
20260503071203 40 301 4.0 6.0 0.00 0.00 0.00 72 1016.1
20260503070659 40 324 0.0 0.0 0.00 0.00 0.00 70 1016.1
20260503070157 40 325 0.0 4.0 0.00 0.00 0.00 69 1016.3
20260503060121 40 347 4.0 4.0 0.00 0.00 0.00 69 1016.0
20260503055113 40 337 2.0 2.0 0.00 0.00 0.00 69 1015.9
20260503054609 40 338 1.0 3.0 0.00 0.00 0.00 70 1015.8
20260503054106 40 354 1.0 4.0 0.00 0.00 0.00 68 1015.9
20260503053604 40 358 2.0 3.0 0.00 0.00 0.00 68 1016.0
20260503053102 40 342 0.0 1.0 0.00 0.00 0.00 69 1016.1
20260503052558 41 39 2.0 2.0 0.00 0.00 0.00 67 1016.1
20260503052055 41 324 1.0 3.0 0.00 0.00 0.00 67 1016.0
20260503051550 41 358 2.0 2.0 0.00 0.00 0.00 67 1016.0
20260503051048 40 302 0.0 1.0 0.00 0.00 0.00 68 1016.2
20260503050543 41 27 0.0 1.0 0.00 0.00 0.00 67 1016.0
20260503050041 41 19 4.0 6.0 0.00 0.00 0.00 68 1016.1
20260503045538 41 342 0.0 1.0 0.00 0.00 0.00 68 1016.2
20260503045035 42 342 1.0 3.0 0.00 0.00 0.00 67 1016.2
20260503044532 42 350 6.0 8.0 0.00 0.00 0.00 68 1016.3
20260503044030 41 6 0.0 0.0 0.00 0.00 0.00 68 1016.2
20260503043525 42 6 1.0 2.0 0.00 0.00 0.00 68 1016.1
20260503043022 42 337 2.0 6.0 0.00 0.00 0.00 67 1016.1
20260503042519 42 69 0.0 2.0 0.00 0.00 0.00 67 1016.2
20260503042016 41 356 3.0 6.0 0.00 0.00 0.00 68 1016.2
20260503041513 42 341 2.0 2.0 0.00 0.00 0.00 67 1016.2
20260503041011 42 39 0.0 2.0 0.00 0.00 0.00 67 1016.1
20260503040508 42 358 1.0 3.0 0.00 0.00 0.00 66 1016.1
20260503040005 42 354 3.0 4.0 0.00 0.00 0.00 65 1015.9
20260503035502 42 27 1.0 2.0 0.00 0.00 0.00 67 1016.2
20260503034959 43 27 0.0 2.0 0.00 0.00 0.00 64 1016.2
20260503034456 42 346 0.0 2.0 0.00 0.00 0.00 64 1016.2
20260503033953 42 346 0.0 2.0 0.00 0.00 0.00 66 1016.2
20260503033450 42 346 0.0 2.0 0.00 0.00 0.00 66 1016.2
20260503032948 43 335 0.0 0.0 0.00 0.00 0.00 66 1016.0
20260503032446 42 10 0.0 1.0 0.00 0.00 0.00 63 1015.9
20260503031943 43 4 0.0 6.0 0.00 0.00 0.00 63 1016.1
20260503031441 44 29 0.0 3.0 0.00 0.00 0.00 62 1016.0
20260503030938 44 354 4.0 4.0 0.00 0.00 0.00 62 1016.0
20260503030434 44 54 3.0 4.0 0.00 0.00 0.00 61 1016.0
20260503025931 44 83 1.0 2.0 0.00 0.00 0.00 64 1016.2
20260503025428 44 83 0.0 1.0 0.00 0.00 0.00 62 1016.2
20260503024926 44 83 1.0 1.0 0.00 0.00 0.00 62 1016.2
20260503024423 44 41 1.0 2.0 0.00 0.00 0.00 61 1016.3
20260503023920 45 40 1.0 2.0 0.00 0.00 0.00 59 1016.2
20260503023417 45 26 2.0 4.0 0.00 0.00 0.00 60 1016.3
20260503022914 45 333 2.0 7.0 0.00 0.00 0.00 60 1016.2
20260503022413 45 50 2.0 3.0 0.00 0.00 0.00 60 1016.3
20260503021909 45 326 5.0 7.0 0.00 0.00 0.00 59 1016.1
20260503021406 45 276 4.0 4.0 0.00 0.00 0.00 60 1016.0
20260503020903 45 332 2.0 9.0 0.00 0.00 0.00 59 1016.1
20260503020401 45 341 1.0 3.0 0.00 0.00 0.00 62 1016.0
20260503015857 44 18 2.0 3.0 0.00 0.00 0.00 61 1016.1
20260503015354 45 103 1.0 2.0 0.00 0.00 0.00 62 1016.2
20260503014850 45 102 1.0 3.0 0.00 0.00 0.00 60 1015.9
20260503014348 45 102 2.0 2.0 0.00 0.00 0.00 60 1015.9
20260503013845 46 103 1.0 3.0 0.00 0.00 0.00 60 1015.9
20260503013342 46 89 2.0 2.0 0.00 0.00 0.00 58 1015.7
20260503012839 46 78 0.0 2.0 0.00 0.00 0.00 58 1015.6
20260503012337 46 78 0.0 2.0 0.00 0.00 0.00 58 1015.5
20260503011834 47 127 1.0 3.0 0.00 0.00 0.00 57 1015.5
20260503011330 47 32 1.0 3.0 0.00 0.00 0.00 55 1015.4
20260503010827 47 23 1.0 4.0 0.00 0.00 0.00 53 1015.2
20260503010324 48 24 1.0 3.0 0.00 0.00 0.00 52 1015.2
20260503005821 48 33 2.0 4.0 0.00 0.00 0.00 51 1015.2
20260503005318 48 348 4.0 4.0 0.00 0.00 0.00 51 1015.2
20260503004814 48 27 3.0 4.0 0.00 0.00 0.00 51 1015.1
20260503004312 48 39 1.0 2.0 0.00 0.00 0.00 52 1014.9
20260503003810 48 349 1.0 6.0 0.00 0.00 0.00 52 1014.8
20260503003306 49 51 1.0 3.0 0.00 0.00 0.00 51 1014.5
20260503002803 49 44 0.0 2.0 0.00 0.00 0.00 51 1014.6
20260503002300 49 335 6.0 8.0 0.00 0.00 0.00 49 1014.6
20260503001756 49 349 0.0 8.0 0.00 0.00 0.00 50 1014.5
20260503001253 49 357 1.0 2.0 0.00 0.00 0.00 52 1014.3
20260503000751 49 60 2.0 4.0 0.00 0.00 0.00 49 1014.6
20260503000248 49 115 2.0 7.0 0.00 0.00 0.00 49 1014.4
20260502235745 49 82 2.0 6.0 0.00 0.00 0.00 48 1014.2
20260502235243 50 356 3.0 9.0 0.00 0.00 0.00 49 1014.1
20260502234738 50 51 1.0 3.0 0.00 0.00 0.00 49 1014.0
20260502234236 50 48 1.0 3.0 0.00 0.00 0.00 48 1013.9
20260502233732 50 19 3.0 4.0 0.00 0.00 0.00 48 1014.1
20260502233229 50 12 8.0 10.0 0.00 0.00 0.00 48 1013.7
20260502232724 50 23 3.0 8.0 0.00 0.00 0.00 47 1013.7
20260502232222 50 18 1.0 3.0 0.00 0.00 0.00 49 1013.9
20260502231718 51 15 2.0 3.0 0.00 0.00 0.00 47 1013.9
20260502231216 51 330 1.0 3.0 0.00 0.00 0.00 50 1013.9
20260502230715 51 13 0.0 4.0 0.00 0.00 0.00 46 1013.9
20260502230213 51 2 3.0 4.0 0.00 0.00 0.00 45 1013.8
20260502225708 51 347 1.0 2.0 0.00 0.00 0.00 45 1013.5
20260502225205 51 330 0.0 6.0 0.00 0.00 0.00 45 1013.6
20260502224702 52 54 1.0 2.0 0.00 0.00 0.00 44 1013.5
20260502224159 51 310 4.0 7.0 0.00 0.00 0.00 44 1013.7
20260502223656 52 359 2.0 3.0 0.00 0.00 0.00 45 1013.4
20260502223154 52 9 4.0 13.0 0.00 0.00 0.00 44 1013.5
20260502222652 52 341 2.0 4.0 0.00 0.00 0.00 43 1013.7
20260502222148 52 32 4.0 11.0 0.00 0.00 0.00 42 1013.5
20260502221643 53 339 2.0 3.0 0.00 0.00 0.00 39 1013.4
20260502221141 53 297 0.0 1.0 0.00 0.00 0.00 41 1013.3
20260502220637 53 320 2.0 3.0 0.00 0.00 0.00 40 1013.3
20260502220133 52 310 3.0 8.0 0.00 0.00 0.00 40 1013.4
20260502215631 52 329 4.0 6.0 0.00 0.00 0.00 40 1013.3
20260502215127 52 23 2.0 4.0 0.00 0.00 0.00 39 1013.4
20260502214625 52 326 5.0 9.0 0.00 0.00 0.00 40 1013.2
20260502214122 53 328 2.0 7.0 0.00 0.00 0.00 40 1013.4
20260502213619 53 35 1.0 3.0 0.00 0.00 0.00 40 1013.3
20260502213116 53 335 7.0 9.0 0.00 0.00 0.00 39 1013.2
20260502212615 53 329 1.0 7.0 0.00 0.00 0.00 39 1013.2
20260502212113 52 330 6.0 11.0 0.00 0.00 0.00 40 1013.3
20260502211608 52 296 7.0 9.0 0.00 0.00 0.00 39 1013.2
20260502211105 52 319 10.0 14.0 0.00 0.00 0.00 38 1013.3
20260502210603 53 279 4.0 9.0 0.00 0.00 0.00 38 1013.2
20260502210059 53 309 5.0 7.0 0.00 0.00 0.00 40 1013.2
20260502205556 53 329 1.0 1.0 0.00 0.00 0.00 40 1013.1
20260502205053 54 332 4.0 4.0 0.00 0.00 0.00 40 1013.2
20260502204550 54 316 2.0 6.0 0.00 0.00 0.00 41 1013.5
20260502204048 53 331 3.0 7.0 0.00 0.00 0.00 40 1013.1
20260502203544 53 345 6.0 11.0 0.00 0.00 0.00 40 1013.4
20260502203042 53 358 10.0 13.0 0.00 0.00 0.00 40 1013.3
20260502202537 53 5 7.0 10.0 0.00 0.00 0.00 40 1013.3
20260502202036 53 347 4.0 7.0 0.00 0.00 0.00 41 1013.2
20260502201531 53 356 8.0 15.0 0.00 0.00 0.00 40 1013.3
20260502201028 55 339 5.0 6.0 0.00 0.00 0.00 39 1013.1
20260502200524 54 91 1.0 4.0 0.00 0.00 0.00 41 1013.3
20260502200022 53 314 2.0 9.0 0.00 0.00 0.00 41 1013.1
20260502195520 53 347 4.0 9.0 0.00 0.00 0.00 40 1013.4
20260502195015 53 323 6.0 8.0 0.00 0.00 0.00 42 1013.4
20260502194512 53 302 6.0 13.0 0.00 0.00 0.00 39 1013.3
20260502194008 53 339 5.0 10.0 0.00 0.00 0.00 41 1013.6
20260502193506 55 326 4.0 14.0 0.00 0.00 0.00 40 1013.7
20260502193002 54 329 3.0 6.0 0.00 0.00 0.00 43 1013.7
20260502192458 54 347 4.0 4.0 0.00 0.00 0.00 40 1013.7
20260502191955 53 352 4.0 8.0 0.00 0.00 0.00 41 1013.8
20260502191452 53 338 4.0 10.0 0.00 0.00 0.00 41 1013.8
20260502190950 54 341 3.0 10.0 0.00 0.00 0.00 40 1014.0
20260502190447 56 32 3.0 4.0 0.00 0.00 0.00 39 1013.8
20260502185943 54 5 8.0 9.0 0.00 0.00 0.00 43 1014.0
20260502185439 53 20 6.0 10.0 0.00 0.00 0.00 44 1014.2
20260502184936 53 47 4.0 9.0 0.00 0.00 0.00 42 1014.2